| time (UTC) | temp F | wind direction | speed MPH | gust MPH | rain 1hr in | rain 24hr in | rain mn in | humidity % | barometer mb |
| 20260507151254 | 59 | 344 | 1.0 | 6.0 | 0.00 | 0.02 | 0.00 | 53 | 1011.8 |
| 20260507150227 | 58 | 321 | 1.0 | 6.0 | 0.00 | 0.02 | 0.00 | 58 | 1012.1 |
| 20260507145215 | 57 | 330 | 3.0 | 12.0 | 0.00 | 0.02 | 0.00 | 56 | 1012.3 |
| 20260507144211 | 57 | 315 | 4.0 | 12.0 | 0.00 | 0.02 | 0.00 | 53 | 1012.5 |
| 20260507143145 | 57 | 325 | 1.0 | 8.0 | 0.00 | 0.02 | 0.00 | 58 | 1012.5 |
| 20260507142111 | 56 | 308 | 1.0 | 7.0 | 0.00 | 0.02 | 0.00 | 59 | 1012.6 |
| 20260507141132 | 56 | 355 | 0.0 | 0.0 | 0.00 | 0.02 | 0.00 | 60 | 1012.9 |
| 20260507140124 | 55 | 338 | 1.0 | 4.0 | 0.00 | 0.04 | 0.00 | 61 | 1013.0 |
| 20260507135128 | 55 | 318 | 2.0 | 5.0 | 0.00 | 0.04 | 0.00 | 61 | 1013.1 |
| 20260507134144 | 55 | 336 | 1.0 | 5.0 | 0.00 | 0.04 | 0.00 | 59 | 1013.2 |
| 20260507133124 | 54 | 321 | 1.0 | 3.0 | 0.00 | 0.04 | 0.00 | 62 | 1013.2 |
| 20260507132124 | 54 | 319 | 2.0 | 4.0 | 0.00 | 0.05 | 0.00 | 63 | 1013.5 |
| 20260507131133 | 54 | 321 | 2.0 | 5.0 | 0.00 | 0.07 | 0.00 | 62 | 1013.3 |
| 20260507130157 | 54 | 303 | 2.0 | 5.0 | 0.00 | 0.09 | 0.00 | 65 | 1013.4 |
| 20260507125221 | 53 | 322 | 1.0 | 6.0 | 0.00 | 0.09 | 0.00 | 63 | 1013.3 |
| 20260507124232 | 53 | 331 | 1.0 | 6.0 | 0.00 | 0.10 | 0.00 | 64 | 1013.4 |
| 20260507123203 | 53 | 339 | 1.0 | 3.0 | 0.00 | 0.12 | 0.00 | 64 | 1013.2 |
| 20260507122201 | 53 | 298 | 2.0 | 5.0 | 0.00 | 0.12 | 0.00 | 63 | 1013.1 |
| 20260507121135 | 53 | 311 | 2.0 | 5.0 | 0.00 | 0.12 | 0.00 | 62 | 1013.0 |
| 20260507115027 | 52 | 320 | 0.0 | 1.0 | 0.00 | 0.15 | 0.00 | 64 | 1013.0 |
| 20260507112835 | 52 | 332 | 0.0 | 6.0 | 0.00 | 0.17 | 0.00 | 63 | 1012.7 |
| 20260507111839 | 52 | 330 | 1.0 | 6.0 | 0.00 | 0.17 | 0.00 | 61 | 1012.9 |
| 20260507110843 | 52 | 328 | 1.0 | 4.0 | 0.00 | 0.19 | 0.00 | 61 | 1012.8 |
| 20260507105837 | 52 | 321 | 0.0 | 5.0 | 0.00 | 0.19 | 0.00 | 60 | 1012.7 |
| 20260507104804 | 52 | 335 | 1.0 | 5.0 | 0.00 | 0.19 | 0.00 | 60 | 1012.6 |
| 20260507103814 | 52 | 325 | 1.0 | 4.0 | 0.00 | 0.19 | 0.00 | 62 | 1012.4 |
| 20260507101648 | 53 | 331 | 1.0 | 8.0 | 0.00 | 0.19 | 0.00 | 63 | 1012.1 |
| 20260507095515 | 53 | 319 | 3.0 | 8.0 | 0.00 | 0.19 | 0.00 | 63 | 1011.8 |
| 20260507093404 | 53 | 339 | 1.0 | 4.0 | 0.00 | 0.19 | 0.00 | 65 | 1011.6 |
| 20260507092334 | 54 | 333 | 1.0 | 10.0 | 0.00 | 0.19 | 0.00 | 68 | 1011.6 |
| 20260507090216 | 54 | 310 | 3.0 | 7.0 | 0.00 | 0.19 | 0.00 | 71 | 1011.7 |
| 20260507085206 | 54 | 317 | 3.0 | 7.0 | 0.00 | 0.19 | 0.00 | 72 | 1011.7 |
| 20260507084135 | 54 | 337 | 2.0 | 5.0 | 0.00 | 0.19 | 0.00 | 75 | 1011.6 |
| 20260507083113 | 54 | 323 | 3.0 | 5.0 | 0.00 | 0.19 | 0.00 | 77 | 1011.6 |
| 20260507082040 | 54 | 335 | 2.0 | 5.0 | 0.00 | 0.19 | 0.00 | 78 | 1011.5 |
| 20260507081104 | 54 | 333 | 2.0 | 4.0 | 0.00 | 0.19 | 0.00 | 79 | 1011.3 |
| 20260507080052 | 54 | 313 | 2.0 | 4.0 | 0.00 | 0.19 | 0.00 | 79 | 1011.2 |
| 20260507075023 | 54 | 336 | 1.0 | 4.0 | 0.00 | 0.19 | 0.00 | 79 | 1011.0 |
| 20260507073953 | 54 | 321 | 0.0 | 5.0 | 0.00 | 0.19 | 0.00 | 79 | 1010.9 |
| 20260507072927 | 55 | 329 | 0.0 | 5.0 | 0.00 | 0.19 | 0.00 | 79 | 1011.0 |
| 20260507071932 | 55 | 338 | 1.0 | 3.0 | 0.00 | 0.19 | 0.00 | 78 | 1010.8 |
| 20260507065724 | 55 | 355 | 2.0 | 6.0 | 0.00 | 0.19 | 0.00 | 78 | 1010.8 |
| 20260507064656 | 55 | 315 | 1.0 | 7.0 | 0.00 | 0.19 | 0.00 | 78 | 1011.0 |
| 20260507063631 | 55 | 333 | 3.0 | 8.0 | 0.00 | 0.19 | 0.00 | 77 | 1011.3 |
| 20260507061510 | 55 | 321 | 1.0 | 6.0 | 0.00 | 0.19 | 0.00 | 78 | 1011.5 |
| 20260507060529 | 56 | 316 | 2.0 | 5.0 | 0.00 | 0.19 | 0.00 | 77 | 1011.3 |
| 20260507055509 | 56 | 348 | 2.0 | 6.0 | 0.00 | 0.19 | 0.00 | 77 | 1011.3 |
| 20260507054444 | 56 | 331 | 1.0 | 6.0 | 0.00 | 0.19 | 0.00 | 78 | 1011.2 |
| 20260507053502 | 56 | 336 | 0.0 | 2.0 | 0.00 | 0.19 | 0.00 | 81 | 1011.2 |
| 20260507052428 | 56 | 344 | 0.0 | 3.0 | 0.00 | 0.19 | 0.00 | 81 | 1011.0 |
| 20260507051404 | 56 | 324 | 1.0 | 4.0 | 0.00 | 0.19 | 0.00 | 81 | 1011.3 |
| 20260507050333 | 56 | 341 | 0.0 | 5.0 | 0.00 | 0.19 | 0.00 | 82 | 1011.0 |
| 20260507045313 | 56 | 346 | 1.0 | 3.0 | 0.00 | 0.19 | 0.00 | 84 | 1011.2 |
| 20260507044258 | 56 | 336 | 0.0 | 2.0 | 0.00 | 0.19 | 0.00 | 85 | 1011.2 |
| 20260507043236 | 56 | 116 | 0.0 | 2.0 | 0.00 | 0.19 | 0.00 | 85 | 1010.5 |
| 20260507035930 | 57 | 13 | 0.0 | 5.0 | 0.00 | 0.19 | 0.20 | 84 | 1010.7 |
| 20260507034945 | 57 | 346 | 1.0 | 6.0 | 0.00 | 0.19 | 0.20 | 83 | 1010.7 |
| 20260507032829 | 58 | 327 | 3.0 | 9.0 | 0.00 | 0.19 | 0.20 | 82 | 1010.7 |
| 20260507031845 | 58 | 350 | 3.0 | 7.0 | 0.00 | 0.19 | 0.20 | 81 | 1010.6 |
| 20260507030827 | 58 | 325 | 3.0 | 9.0 | 0.00 | 0.19 | 0.20 | 82 | 1010.7 |
| 20260507025833 | 59 | 302 | 2.0 | 9.0 | 0.00 | 0.19 | 0.20 | 82 | 1010.6 |
| 20260507024856 | 59 | 306 | 0.0 | 5.0 | 0.00 | 0.19 | 0.20 | 82 | 1010.3 |
| 20260507023903 | 59 | 339 | 0.0 | 7.0 | 0.00 | 0.19 | 0.20 | 82 | 1010.4 |
| 20260507022928 | 59 | 13 | 0.0 | 7.0 | 0.00 | 0.19 | 0.20 | 82 | 1010.4 |
| 20260507021938 | 59 | 47 | 0.0 | 4.0 | 0.00 | 0.19 | 0.20 | 83 | 1010.0 |
| 20260507015829 | 59 | 46 | 0.0 | 2.0 | 0.00 | 0.19 | 0.20 | 84 | 1009.9 |
| 20260507013621 | 60 | 315 | 0.0 | 0.0 | 0.00 | 0.19 | 0.20 | 86 | 1010.0 |
| 20260507012628 | 60 | 11 | 0.0 | 1.0 | 0.00 | 0.19 | 0.20 | 85 | 1009.6 |
| 20260507010435 | 61 | 341 | 4.0 | 10.0 | 0.00 | 0.19 | 0.20 | 86 | 1009.7 |
| 20260507005459 | 62 | 304 | 4.0 | 7.0 | 0.00 | 0.19 | 0.20 | 87 | 1010.1 |
| 20260507004500 | 62 | 337 | 3.0 | 10.0 | 0.00 | 0.19 | 0.20 | 86 | 1009.8 |
| 20260507003430 | 63 | 309 | 4.0 | 10.0 | 0.00 | 0.19 | 0.20 | 84 | 1009.7 |
| 20260507002434 | 63 | 311 | 6.0 | 9.0 | 0.00 | 0.19 | 0.20 | 84 | 1009.7 |
| 20260507001425 | 64 | 314 | 4.0 | 9.0 | 0.00 | 0.19 | 0.20 | 86 | 1009.6 |
| 20260507000423 | 65 | 329 | 3.0 | 9.0 | 0.00 | 0.19 | 0.20 | 86 | 1009.3 |
| 20260506235442 | 65 | 332 | 4.0 | 9.0 | 0.00 | 0.19 | 0.20 | 85 | 1009.1 |
| 20260506233318 | 66 | 303 | 3.0 | 10.0 | 0.00 | 0.19 | 0.20 | 85 | 1008.8 |
| 20260506232258 | 66 | 313 | 4.0 | 9.0 | 0.00 | 0.19 | 0.20 | 85 | 1008.1 |
| 20260506231244 | 66 | 327 | 3.0 | 9.0 | 0.00 | 0.19 | 0.20 | 86 | 1008.1 |
| 20260506230308 | 67 | 302 | 2.0 | 7.0 | 0.00 | 0.19 | 0.20 | 88 | 1008.1 |
| 20260506225320 | 67 | 325 | 2.0 | 7.0 | 0.00 | 0.19 | 0.20 | 89 | 1008.1 |
| 20260506224255 | 68 | 290 | 0.0 | 1.0 | 0.00 | 0.19 | 0.20 | 89 | 1008.0 |
| 20260506223319 | 68 | 232 | 0.0 | 2.0 | 0.00 | 0.19 | 0.20 | 88 | 1007.9 |
| 20260506222306 | 68 | 227 | 0.0 | 3.0 | 0.00 | 0.19 | 0.20 | 88 | 1007.8 |
| 20260506221247 | 68 | 253 | 0.0 | 3.0 | 0.00 | 0.19 | 0.20 | 89 | 1007.7 |
| 20260506220239 | 67 | 149 | 0.0 | 0.0 | 0.00 | 0.19 | 0.20 | 91 | 1007.5 |
| 20260506215252 | 67 | 235 | 0.0 | 1.0 | 0.00 | 0.19 | 0.20 | 92 | 1007.5 |
| 20260506214234 | 66 | 225 | 0.0 | 3.0 | 0.00 | 0.19 | 0.20 | 92 | 1007.7 |
| 20260506213230 | 66 | 167 | 0.0 | 0.0 | 0.00 | 0.19 | 0.20 | 93 | 1007.7 |
| 20260506212228 | 66 | 271 | 0.0 | 0.0 | 0.00 | 0.19 | 0.20 | 93 | 1007.6 |
| 20260506211240 | 66 | 271 | 0.0 | 1.0 | 0.00 | 0.19 | 0.20 | 93 | 1007.5 |
| 20260506210253 | 65 | 229 | 0.0 | 0.0 | 0.00 | 0.19 | 0.20 | 92 | 1007.2 |
| 20260506204150 | 65 | 229 | 0.0 | 0.0 | 0.00 | 0.19 | 0.20 | 92 | 1007.2 |
| 20260506203135 | 66 | 229 | 0.0 | 2.0 | 0.00 | 0.19 | 0.20 | 91 | 1007.1 |
| 20260506202134 | 66 | 226 | 0.0 | 0.0 | 0.06 | 0.19 | 0.20 | 89 | 1007.0 |
| 20260506201132 | 67 | 215 | 0.0 | 0.0 | 0.20 | 0.19 | 0.19 | 88 | 1007.2 |
| 20260506200152 | 67 | 225 | 0.0 | 0.0 | 0.00 | 0.18 | 0.18 | 86 | 1007.1 |
| 20260506195135 | 68 | 144 | 0.0 | 1.0 | 0.00 | 0.18 | 0.18 | 85 | 1007.1 |
| 20260506194127 | 68 | 115 | 0.0 | 5.0 | 0.00 | 0.18 | 0.18 | 83 | 1007.1 |
| 20260506193127 | 68 | 235 | 0.0 | 8.0 | 0.00 | 0.18 | 0.18 | 82 | 1007.1 |
| 20260506192129 | 69 | 132 | 1.0 | 8.0 | 0.00 | 0.18 | 0.18 | 82 | 1007.1 |
| 20260506191101 | 70 | 114 | 1.0 | 6.0 | 0.00 | 0.18 | 0.18 | 83 | 1007.2 |
| 20260506185127 | 69 | 269 | 0.0 | 4.0 | 0.00 | 0.18 | 0.18 | 84 | 1007.1 |
| 20260506182913 | 67 | 135 | 0.0 | 6.0 | 0.00 | 0.18 | 0.18 | 87 | 1007.5 |
| 20260506181935 | 67 | 157 | 0.0 | 6.0 | 0.00 | 0.18 | 0.18 | 86 | 1007.6 |
| 20260506180936 | 66 | 225 | 0.0 | 6.0 | 0.00 | 0.18 | 0.18 | 87 | 1007.5 |
| 20260506175933 | 66 | 124 | 1.0 | 6.0 | 0.00 | 0.18 | 0.18 | 87 | 1007.5 |
| 20260506174908 | 66 | 183 | 1.0 | 10.0 | 0.00 | 0.18 | 0.18 | 87 | 1007.6 |
| 20260506172819 | 66 | 175 | 1.0 | 6.0 | 0.00 | 0.18 | 0.18 | 87 | 1007.6 |
| 20260506171829 | 66 | 222 | 1.0 | 5.0 | 0.00 | 0.18 | 0.18 | 86 | 1007.7 |
| 20260506170109 | 67 | 126 | 1.0 | 12.0 | 0.00 | 0.18 | 0.18 | 87 | 1007.6 |
| 20260506165124 | 66 | 121 | 2.0 | 12.0 | 0.00 | 0.18 | 0.18 | 88 | 1007.6 |
| 20260506164117 | 65 | 124 | 1.0 | 10.0 | 0.00 | 0.18 | 0.18 | 90 | 1007.7 |
| 20260506163137 | 65 | 250 | 2.0 | 10.0 | 0.00 | 0.18 | 0.18 | 91 | 1007.6 |
| 20260506162123 | 64 | 163 | 2.0 | 11.0 | 0.00 | 0.18 | 0.18 | 92 | 1007.7 |
| 20260506161050 | 63 | 180 | 1.0 | 12.0 | 0.00 | 0.18 | 0.18 | 93 | 1007.7 |
| 20260506160109 | 63 | 167 | 1.0 | 12.0 | 0.00 | 0.18 | 0.18 | 94 | 1007.7 |
| 20260506154026 | 62 | 152 | 1.0 | 8.0 | 0.00 | 0.18 | 0.18 | 95 | 1007.9 |
| 20260506153004 | 61 | 136 | 1.0 | 8.0 | 0.00 | 0.18 | 0.18 | 94 | 1007.8 |
| 20260506151953 | 61 | 254 | 1.0 | 8.0 | 0.00 | 0.18 | 0.18 | 94 | 1007.8 |